{"data":{"norad_id":66609,"epoch":"2026-09-20T19:36:35.626464Z","epoch_age_seconds":59167,"freshness":"FRESH","line1":"1 66609U 25270X   26263.81707901  .00011566  00000+0  42900-3 0  9991","line2":"2 66609  43.0054  34.5809 0003267 279.9475  80.1008 15.27591382 47387","mean_motion":15.27591382,"eccentricity":0.0003267,"inclination_deg":43.0054,"raan_deg":34.5809,"arg_perigee_deg":279.9475,"mean_anomaly_deg":80.1008,"bstar":0.000429,"rev_number":4738,"period_min":94.266046337253,"perigee_km":480.7734760855,"apogee_km":485.25655281174,"semimajor_km":6861.1520144486,"source":"CELESTRAK","updated_at":"2026-09-21T09:00:35.980114Z"}}